Location: Unspecified
(50.7693°N, 0.0000°E)
Time: 11:18:59
(UTC+00:00)

deb Explorer IX - Pass Details

Date: 18 June 2019
Orbit: 539 x 1111 km, 38.8° (Epoch: 16 August)

Event Time Altitude Azimuth Distance (km) Brightness Sun altitude
Rises 18:17:01 0° 256° (WSW) 3,906 ? 15.5°
Reaches altitude 10° 18:20:15 10° 246° (WSW) 2,907 ? 15.0°
Maximum altitude 18:26:04 28° 191° (S) 1,805 ? 14.2°
Drops below altitude 10° 18:31:23 10° 135° (SE) 2,636 ? 13.4°
Sets 18:34:10 0° 124° (SE) 3,482 ? 13.0°
